Starlink 32424

operational
NORAD ID: 61548 Int'l Des: 2024-184 Owner: SPXS Country: US Constellation: starlink
LEOCIRCULAR

About Starlink 32424

Description loading...

Live Position

Loading 3D Globe...

Upcoming Passes

Altitude History

Altitude vs Time

uPlot chart will show altitude changes over time

Two-Line Element Set

1 61548U 24184S 26035.83203519 .00000988 00000-0 45494-4 0 9995
2 61548 53.1589 166.7534 0001053 68.6459 291.4654 15.30185401 73476
Epoch: Feb 4, 2026 • Age: 16 hours

Current Status

Altitude 475.4 km
Velocity 7.63 km/s
Sub-Earth Point 12.26°N, 13.19°E
Launch Date Oct 15, 2024
Age 1.3 years
Type internet

Technical Details

Classification Payload
Mass 730.00 kg
Dry Mass 700.00 kg
Total Mass 730.00 kg
Length 0.30 m
Diameter 4.10 m
Span 29.00 m
Shape Box + pan
Manufacturer SPXS
Bus Type Starlink V2M
Phase Status In Orbit
Owner/State SPXS/US

Large Constellations

Loading constellations...